カタログに戻る

BREEZE-M R/B

運用中HEO
NORAD 50003·ROCKET BODY·🇷🇺 Russia

打ち上げ Dec 13, 2021 から Baikonur Cosmodrome

Loading…

次のパス (今後24時間)

TLE

最新Source: Space-Track

元期: Sep 13, 2026, 18:52 UTC

1 50003U 21123C   26256.78643094 -.00000203  00000-0  00000-0 0  9995
2 50003   6.0463  84.3392 4396318  59.6048 337.0631  1.07952816 18803

AllMySatでBREEZE-M R/Bをリアルタイム追跡

Download on the App Store